CW9451 Weather Reports


Display with metric or nautical units.
time (UTC)temp
F
wind
direction
speed
MPH
gust
MPH
rain 1hr
in
rain 24hr
in
rain mn
in
humidity
%
barometer
mb
20260906010904 57 0.0 0.0 0.00 0.00 0.00 94 1026.7
20260906005909 58 0.0 0.0 0.00 0.00 0.00 93 1026.7
20260906002904 58 0.0 0.0 0.00 0.00 0.00 94 1026.6
20260906001909 58 0.0 0.0 0.00 0.00 0.00 94 1026.7
20260905235905 58 0.0 0.0 0.00 0.00 0.00 95 1026.5
20260905234905 58 0.0 0.0 0.00 0.00 0.00 96 1026.3
20260905233904 58 0.0 0.0 0.00 0.00 0.00 95 1026.1
20260905232904 58 0.0 0.0 0.00 0.00 0.00 94 1026.0
20260905231908 59 0.0 0.0 0.00 0.00 0.00 94 1026.1
20260905225904 59 0.0 0.0 0.00 0.00 0.00 94 1026.0
20260905224905 58 0.0 0.0 0.00 0.00 0.00 95 1025.7
20260905223905 58 0.0 0.0 0.00 0.00 0.00 95 1025.7
20260905222904 59 0.0 0.0 0.00 0.00 0.00 93 1025.6
20260905221904 59 0.0 0.0 0.00 0.00 0.00 94 1025.5
20260905220905 59 0.0 0.0 0.00 0.00 0.00 94 1025.5
20260905215905 59 0.0 0.0 0.00 0.00 0.00 93 1025.4
20260905214904 59 0.0 0.0 0.00 0.00 0.00 92 1025.3
20260905213904 60 0.0 0.0 0.00 0.00 0.00 91 1025.2
20260905212903 60 0.0 0.0 0.00 0.00 0.00 92 1025.2
20260905211903 60 0.0 0.0 0.00 0.00 0.00 91 1025.1
20260905210908 60 0.0 0.0 0.00 0.00 0.00 90 1024.9
20260905202905 61 0.0 0.0 0.00 0.00 0.00 89 1024.5
20260905201904 61 0.0 0.0 0.00 0.00 0.00 88 1024.4
20260905200904 61 0.0 0.0 0.00 0.00 0.00 87 1024.3
20260905195904 61 0.0 0.0 0.00 0.00 0.00 87 1024.1
20260905194904 62 0.0 0.0 0.00 0.00 0.00 87 1024.1
20260905193904 62 0.0 0.0 0.00 0.00 0.00 86 1024.0
20260905192903 62 0.0 0.0 0.00 0.00 0.00 86 1024.0
20260905191903 62 0.0 0.0 0.00 0.00 0.00 84 1023.7
20260905190904 62 0.0 0.0 0.00 0.00 0.00 84 1023.6
20260905185905 63 0.0 0.0 0.00 0.00 0.00 84 1023.5
20260905184904 63 0.0 0.0 0.00 0.00 0.00 83 1023.3
20260905183905 63 0.0 0.0 0.00 0.00 0.00 83 1023.5
20260905182904 63 0.0 0.0 0.00 0.00 0.00 83 1023.2
20260905181905 64 0.0 0.0 0.00 0.00 0.00 82 1023.0
20260905180904 64 0.0 0.0 0.00 0.00 0.00 82 1022.9
20260905175904 64 0.0 0.0 0.00 0.00 0.00 81 1022.8
20260905174904 65 0.0 0.0 0.00 0.00 0.00 82 1022.7
20260905173904 65 0.0 0.0 0.00 0.00 0.00 81 1022.6
20260905172908 66 0.0 0.0 0.00 0.00 0.00 79 1022.4
20260905170904 68 0.0 0.0 0.00 0.00 0.00 73 1022.1
20260905165904 70 0.0 0.0 0.00 0.00 0.00 74 1022.4
20260905164904 68 0.0 0.0 0.00 0.00 0.00 78 1022.4
20260905163905 67 0.0 0.0 0.00 0.00 0.00 79 1022.1
20260905162908 65 0.0 0.0 0.00 0.00 0.00 80 1021.8
20260905160909 66 0.0 0.0 0.00 0.00 0.00 80 1021.5
20260905154909 66 0.0 0.0 0.00 0.00 0.00 81 1021.2
20260905151905 66 0.0 0.0 0.00 0.00 0.00 86 1021.3
20260905150904 65 0.0 0.0 0.00 0.00 0.00 84 1020.8
20260905145903 66 0.0 0.0 0.00 0.00 0.00 82 1020.6
20260905144908 66 0.0 0.0 0.00 0.00 0.00 80 1020.5
20260905142904 69 0.0 0.0 0.00 0.00 0.00 74 1020.6
20260905141904 67 0.0 0.0 0.00 0.00 0.00 79 1020.5
20260905140904 66 0.0 0.0 0.00 0.00 0.00 80 1020.3
20260905135904 66 0.0 0.0 0.00 0.00 0.00 79 1020.2
20260905134905 67 0.0 0.0 0.00 0.00 0.00 78 1020.0
20260905133905 67 0.0 0.0 0.00 0.00 0.00 76 1019.9
20260905132904 67 0.0 0.0 0.00 0.00 0.00 78 1020.0
20260905131909 67 0.0 0.0 0.00 0.00 0.00 77 1019.7
20260905125904 67 0.0 0.0 0.00 0.00 0.00 74 1019.7
20260905124905 67 0.0 0.0 0.00 0.00 0.00 76 1019.6
20260905123909 67 0.0 0.0 0.00 0.00 0.00 74 1019.3
20260905121903 69 0.0 0.0 0.00 0.00 0.00 74 1019.7
20260905120903 67 0.0 0.0 0.00 0.00 0.00 75 1019.5
20260905115904 67 0.0 0.0 0.00 0.00 0.00 74 1019.6
20260905114904 66 0.0 0.0 0.00 0.00 0.00 77 1019.7
20260905113905 66 0.0 0.0 0.00 0.00 0.00 78 1019.7
20260905112904 65 0.0 0.0 0.00 0.00 0.00 77 1019.5
20260905111904 65 0.0 0.0 0.00 0.00 0.00 78 1019.6
20260905110905 66 0.0 0.0 0.00 0.00 0.00 77 1019.6
20260905105904 67 0.0 0.0 0.00 0.00 0.00 78 1019.6
20260905104905 67 0.0 0.0 0.00 0.00 0.00 79 1019.7
20260905103905 66 0.0 0.0 0.00 0.00 0.00 79 1019.5
20260905102904 66 0.0 0.0 0.00 0.00 0.00 77 1019.6
20260905101909 66 0.0 0.0 0.00 0.00 0.00 79 1019.5
20260905095908 68 0.0 0.0 0.00 0.00 0.00 76 1019.6
20260905093903 66 0.0 0.0 0.00 0.00 0.00 79 1019.6
20260905092904 66 0.0 0.0 0.00 0.00 0.00 82 1019.9
20260905091904 65 0.0 0.0 0.00 0.00 0.00 84 1019.8
20260905090908 65 0.0 0.0 0.00 0.00 0.00 86 1019.6
20260905084904 65 0.0 0.0 0.00 0.00 0.00 89 1019.8
20260905083909 64 0.0 0.0 0.00 0.00 0.00 89 1019.6
20260905080905 64 0.0 0.0 0.00 0.00 0.00 94 1019.5
20260905075904 63 0.0 0.0 0.00 0.00 0.00 97 1019.6
20260905074904 62 0.0 0.0 0.00 0.00 0.00 10 1019.3
20260905073904 62 0.0 0.0 0.00 0.00 0.00 10 1019.4
20260905072905 61 0.0 0.0 0.00 0.00 0.00 10 1019.3
20260905071905 61 0.0 0.0 0.00 0.00 0.00 10 1019.2
20260905070908 61 0.0 0.0 0.00 0.00 0.00 10 1019.2
20260905064904 60 0.0 0.0 0.00 0.00 0.00 10 1019.0
20260905063903 60 0.0 0.0 0.00 0.00 0.00 10 1019.0
20260905062903 59 0.0 0.0 0.00 0.00 0.00 10 1018.8
20260905061903 59 0.0 0.0 0.00 0.00 0.00 10 1018.7
20260905060903 59 0.0 0.0 0.00 0.00 0.00 10 1018.7
20260905055908 60 0.0 0.0 0.00 0.00 0.00 10 1019.0
20260905053903 59 0.0 0.0 0.00 0.00 0.00 10 1018.7
20260905052908 59 0.0 0.0 0.00 0.00 0.00 10 1018.5
20260905050904 59 0.0 0.0 0.00 0.00 0.00 10 1018.2
20260905045904 58 0.0 0.0 0.00 0.00 0.00 10 1018.1
20260905044903 58 0.0 0.0 0.00 0.00 0.00 10 1017.8
20260905043908 59 0.0 0.0 0.00 0.00 0.00 10 1017.7
20260905040904 59 0.0 0.0 0.00 0.00 0.00 10 1017.5
20260905035905 59 0.0 0.0 0.00 0.00 0.00 10 1017.6
20260905034909 59 0.0 0.0 0.00 0.00 0.00 10 1017.6
20260905031904 59 0.0 0.0 0.00 0.00 0.00 10 1017.2
20260905030909 59 0.0 0.0 0.00 0.00 0.00 10 1017.1
20260905024905 60 0.0 0.0 0.00 0.00 0.00 10 1017.0
20260905023904 60 0.0 0.0 0.00 0.00 0.00 10 1016.9
20260905022904 60 0.0 0.0 0.00 0.00 0.00 10 1016.9
20260905021904 60 0.0 0.0 0.00 0.00 0.00 10 1017.0
20260905020904 60 0.0 0.0 0.00 0.00 0.00 10 1016.9
20260905015904 60 0.0 0.0 0.00 0.00 0.00 10 1016.7
20260905014903 60 0.0 0.0 0.00 0.00 0.00 10 1016.7
20260905013908 60 0.0 0.0 0.00 0.00 0.00 10 1016.7